Time,TemperatureF,DewpointF,PressureIn,WindDirection,WindDirectionDegrees,WindSpeedMPH,WindSpeedGustMPH,Humidity,HourlyPrecipIn,Conditions,Clouds,dailyrainin,SoftwareType,DateUTC
2013-01-15 00:02:00,17.0,13.0,30.34,SSW,202,2.0,7.0,83,0.00,,,0.00,,2013-01-15 06:02:00,
2013-01-15 00:12:00,17.0,13.0,30.34,SSW,202,2.0,7.0,83,0.00,,,0.00,,2013-01-15 06:12:00,
2013-01-15 00:22:00,17.0,13.0,30.34,South,179,2.0,6.0,83,0.00,,,0.00,,2013-01-15 06:22:00,
2013-01-15 00:33:00,17.0,13.0,30.34,SW,220,2.0,7.0,83,0.00,,,0.00,,2013-01-15 06:33:00,
2013-01-15 00:42:00,17.0,13.0,30.34,SW,220,2.0,7.0,83,0.00,,,0.00,,2013-01-15 06:42:00,
2013-01-15 00:53:00,16.0,12.0,30.33,SW,236,2.0,5.0,83,0.00,,,0.00,,2013-01-15 06:53:00,
2013-01-15 01:02:00,16.0,12.0,30.33,South,183,1.0,6.0,83,0.00,,,0.00,,2013-01-15 07:02:00,
2013-01-15 01:12:00,16.0,12.0,30.33,South,183,1.0,6.0,83,0.00,,,0.00,,2013-01-15 07:12:00,
2013-01-15 01:22:00,16.0,12.0,30.33,South,190,2.0,6.0,84,0.00,,,0.00,,2013-01-15 07:22:00,
2013-01-15 01:32:00,15.0,11.0,30.33,South,186,1.0,6.0,84,0.00,,,0.00,,2013-01-15 07:32:00,
2013-01-15 01:42:00,15.0,11.0,30.33,South,186,1.0,6.0,84,0.00,,,0.00,,2013-01-15 07:42:00,
2013-01-15 01:53:00,16.0,12.0,30.33,SSW,207,2.0,6.0,84,0.00,,,0.00,,2013-01-15 07:53:00,
2013-01-15 02:02:00,15.0,11.0,30.32,SSW,196,3.0,6.0,84,0.00,,,0.00,,2013-01-15 08:02:00,
2013-01-15 02:12:00,15.0,11.0,30.32,SSW,196,3.0,6.0,84,0.00,,,0.00,,2013-01-15 08:12:00,
2013-01-15 02:22:00,15.0,11.0,30.32,South,179,2.0,8.0,83,0.00,,,0.00,,2013-01-15 08:22:00,
2013-01-15 02:32:00,15.0,11.0,30.32,WSW,244,2.0,6.0,84,0.00,,,0.00,,2013-01-15 08:32:00,
2013-01-15 02:42:00,15.0,11.0,30.32,WSW,244,2.0,6.0,84,0.00,,,0.00,,2013-01-15 08:42:00,
2013-01-15 02:53:00,15.0,11.0,30.32,South,188,3.0,6.0,84,0.00,,,0.00,,2013-01-15 08:53:00,
2013-01-15 03:02:00,16.0,12.0,30.32,SSW,194,2.0,7.0,83,0.00,,,0.00,,2013-01-15 09:02:00,
2013-01-15 03:12:00,16.0,12.0,30.32,SSW,194,2.0,7.0,83,0.00,,,0.00,,2013-01-15 09:12:00,
2013-01-15 03:22:00,16.0,12.0,30.32,South,186,2.0,6.0,83,0.00,,,0.00,,2013-01-15 09:22:00,
2013-01-15 03:33:00,16.0,12.0,30.32,WSW,238,2.0,4.0,83,0.00,,,0.00,,2013-01-15 09:33:00,
2013-01-15 03:42:00,16.0,12.0,30.32,WSW,238,2.0,4.0,83,0.00,,,0.00,,2013-01-15 09:42:00,
2013-01-15 03:52:00,15.0,11.0,30.31,SE,139,2.0,6.0,83,0.00,,,0.00,,2013-01-15 09:52:00,
2013-01-15 04:02:00,15.0,11.0,30.31,SW,214,1.0,6.0,83,0.00,,,0.00,,2013-01-15 10:02:00,
2013-01-15 04:12:00,15.0,11.0,30.31,SW,214,1.0,6.0,83,0.00,,,0.00,,2013-01-15 10:12:00,
2013-01-15 04:22:00,15.0,11.0,30.30,SW,217,2.0,5.0,83,0.00,,,0.00,,2013-01-15 10:22:00,
2013-01-15 04:32:00,15.0,11.0,30.29,South,188,1.0,5.0,84,0.00,,,0.00,,2013-01-15 10:32:00,
2013-01-15 04:42:00,15.0,11.0,30.29,South,188,1.0,5.0,84,0.00,,,0.00,,2013-01-15 10:42:00,
2013-01-15 04:52:00,14.0,10.0,30.30,SSW,202,0.0,3.0,84,0.00,,,0.00,,2013-01-15 10:52:00,
2013-01-15 05:02:00,14.0,10.0,30.29,South,175,1.0,3.0,85,0.00,,,0.00,,2013-01-15 11:02:00,
2013-01-15 05:12:00,14.0,10.0,30.29,South,175,1.0,3.0,85,0.00,,,0.00,,2013-01-15 11:12:00,
2013-01-15 05:22:00,13.0,9.0,30.29,South,180,1.0,4.0,85,0.00,,,0.00,,2013-01-15 11:22:00,
2013-01-15 05:33:00,13.0,10.0,30.29,South,188,3.0,5.0,86,0.00,,,0.00,,2013-01-15 11:33:00,
2013-01-15 05:42:00,13.0,10.0,30.29,South,188,3.0,5.0,86,0.00,,,0.00,,2013-01-15 11:42:00,
2013-01-15 05:53:00,13.0,10.0,30.29,SW,229,2.0,5.0,86,0.00,,,0.00,,2013-01-15 11:53:00,
2013-01-15 06:03:00,14.0,11.0,30.29,SW,217,2.0,5.0,86,0.00,,,0.00,,2013-01-15 12:03:00,
2013-01-15 06:12:00,14.0,11.0,30.29,SW,217,2.0,5.0,86,0.00,,,0.00,,2013-01-15 12:12:00,
2013-01-15 06:22:00,14.0,11.0,30.29,SSW,209,1.0,4.0,86,0.00,,,0.00,,2013-01-15 12:22:00,
2013-01-15 06:33:00,14.0,11.0,30.29,SSW,207,3.0,5.0,86,0.00,,,0.00,,2013-01-15 12:33:00,
2013-01-15 06:42:00,14.0,11.0,30.29,SSW,207,3.0,5.0,86,0.00,,,0.00,,2013-01-15 12:42:00,
2013-01-15 06:53:00,15.0,11.0,30.28,SSW,212,2.0,5.0,85,0.00,,,0.00,,2013-01-15 12:53:00,
2013-01-15 07:03:00,15.0,11.0,30.28,SSW,199,1.0,5.0,85,0.00,,,0.00,,2013-01-15 13:03:00,
2013-01-15 07:12:00,15.0,11.0,30.28,SSW,199,1.0,5.0,85,0.00,,,0.00,,2013-01-15 13:12:00,
2013-01-15 07:23:00,15.0,11.0,30.28,SW,234,2.0,4.0,85,0.00,,,0.00,,2013-01-15 13:23:00,
2013-01-15 07:33:00,15.0,11.0,30.28,SSW,212,1.0,7.0,85,0.00,,,0.00,,2013-01-15 13:33:00,
2013-01-15 07:43:00,15.0,11.0,30.28,SSW,212,1.0,7.0,85,0.00,,,0.00,,2013-01-15 13:43:00,
2013-01-15 07:53:00,14.0,11.0,30.28,SSW,207,2.0,4.0,86,0.00,,,0.00,,2013-01-15 13:53:00,
2013-01-15 08:02:00,15.0,12.0,30.28,South,173,4.0,6.0,86,0.00,,,0.00,,2013-01-15 14:02:00,
2013-01-15 08:12:00,15.0,12.0,30.28,South,173,4.0,6.0,86,0.00,,,0.00,,2013-01-15 14:12:00,
2013-01-15 08:23:00,15.0,12.0,30.28,South,170,2.0,6.0,86,0.00,,,0.00,,2013-01-15 14:23:00,
2013-01-15 08:33:00,15.0,12.0,30.28,SSW,207,2.0,7.0,86,0.00,,,0.00,,2013-01-15 14:33:00,
2013-01-15 08:43:00,15.0,12.0,30.28,SSW,207,2.0,7.0,86,0.00,,,0.00,,2013-01-15 14:43:00,
2013-01-15 08:53:00,15.0,12.0,30.28,SW,224,2.0,5.0,86,0.00,,,0.00,,2013-01-15 14:53:00,
2013-01-15 09:03:00,16.0,12.0,30.28,SSE,148,2.0,6.0,85,0.00,,,0.00,,2013-01-15 15:03:00,
2013-01-15 09:12:00,16.0,12.0,30.28,SSE,148,2.0,6.0,85,0.00,,,0.00,,2013-01-15 15:12:00,
2013-01-15 09:23:00,17.0,13.0,30.28,SSW,211,2.0,7.0,85,0.00,,,0.00,,2013-01-15 15:23:00,
2013-01-15 09:33:00,18.0,14.0,30.29,SSW,202,3.0,7.0,83,0.00,,,0.00,,2013-01-15 15:33:00,
2013-01-15 09:43:00,18.0,14.0,30.29,SSW,202,3.0,7.0,83,0.00,,,0.00,,2013-01-15 15:43:00,
2013-01-15 09:53:00,19.0,14.0,30.28,South,184,4.0,9.0,82,0.00,,,0.00,,2013-01-15 15:53:00,
2013-01-15 10:03:00,20.0,15.0,30.28,SSW,196,4.0,12.0,81,0.00,,,0.00,,2013-01-15 16:03:00,
2013-01-15 10:12:00,20.0,15.0,30.28,SSW,196,4.0,12.0,81,0.00,,,0.00,,2013-01-15 16:12:00,
2013-01-15 10:22:00,21.0,16.0,30.27,SSW,207,4.0,8.0,80,0.00,,,0.00,,2013-01-15 16:22:00,
2013-01-15 10:33:00,22.0,17.0,30.27,SW,215,5.0,10.0,80,0.00,,,0.00,,2013-01-15 16:33:00,
2013-01-15 10:42:00,22.0,17.0,30.27,SW,215,5.0,10.0,80,0.00,,,0.00,,2013-01-15 16:42:00,
2013-01-15 10:53:00,23.0,18.0,30.27,WSW,243,2.0,12.0,80,0.00,,,0.00,,2013-01-15 16:53:00,
2013-01-15 11:03:00,24.0,18.0,30.27,SSE,167,5.0,12.0,78,0.00,,,0.00,,2013-01-15 17:03:00,
2013-01-15 11:12:00,24.0,18.0,30.27,SSE,167,5.0,12.0,78,0.00,,,0.00,,2013-01-15 17:12:00,
2013-01-15 11:22:00,26.0,20.0,30.27,SSW,203,3.0,10.0,77,0.00,,,0.00,,2013-01-15 17:22:00,
2013-01-15 11:33:00,27.0,20.0,30.26,South,178,6.0,12.0,75,0.00,,,0.00,,2013-01-15 17:33:00,
2013-01-15 11:42:00,27.0,20.0,30.26,South,178,6.0,12.0,75,0.00,,,0.00,,2013-01-15 17:42:00,
2013-01-15 11:53:00,28.0,20.0,30.24,WSW,246,6.0,9.0,73,0.00,,,0.00,,2013-01-15 17:53:00,
2013-01-15 12:03:00,28.0,20.0,30.23,SSE,154,5.0,13.0,72,0.00,,,0.00,,2013-01-15 18:03:00,
2013-01-15 12:13:00,28.0,20.0,30.23,SSE,154,5.0,13.0,72,0.00,,,0.00,,2013-01-15 18:13:00,
2013-01-15 12:23:00,29.0,20.0,30.22,South,180,6.0,11.0,70,0.00,,,0.00,,2013-01-15 18:23:00,
2013-01-15 12:33:00,29.0,20.0,30.21,SW,220,7.0,13.0,69,0.00,,,0.00,,2013-01-15 18:33:00,
2013-01-15 12:43:00,29.0,20.0,30.21,SW,220,7.0,13.0,69,0.00,,,0.00,,2013-01-15 18:43:00,
2013-01-15 12:53:00,29.0,20.0,30.20,SSW,194,7.0,13.0,69,0.00,,,0.00,,2013-01-15 18:53:00,
2013-01-15 13:03:00,30.0,21.0,30.20,South,189,4.0,17.0,69,0.00,,,0.00,,2013-01-15 19:03:00,
2013-01-15 13:12:00,30.0,21.0,30.20,South,189,4.0,17.0,69,0.00,,,0.00,,2013-01-15 19:12:00,
2013-01-15 13:23:00,31.0,21.0,30.19,SW,235,6.0,17.0,67,0.00,,,0.00,,2013-01-15 19:23:00,
2013-01-15 13:33:00,31.0,20.0,30.18,SSW,209,8.0,13.0,63,0.00,,,0.00,,2013-01-15 19:33:00,
2013-01-15 13:42:00,31.0,20.0,30.18,SSW,209,8.0,13.0,63,0.00,,,0.00,,2013-01-15 19:42:00,
2013-01-15 13:53:00,32.0,21.0,30.17,SW,214,6.0,14.0,63,0.00,,,0.00,,2013-01-15 19:53:00,
2013-01-15 14:03:00,32.0,20.0,30.16,SSW,193,8.0,15.0,61,0.00,,,0.00,,2013-01-15 20:03:00,
2013-01-15 14:12:00,32.0,20.0,30.16,SSW,193,8.0,15.0,61,0.00,,,0.00,,2013-01-15 20:12:00,
2013-01-15 14:23:00,33.0,20.0,30.16,SSW,194,8.0,19.0,59,0.00,,,0.00,,2013-01-15 20:23:00,
2013-01-15 14:33:00,33.0,21.0,30.15,South,176,5.0,14.0,61,0.00,,,0.00,,2013-01-15 20:33:00,
2013-01-15 14:43:00,33.0,21.0,30.15,South,176,5.0,14.0,61,0.00,,,0.00,,2013-01-15 20:43:00,
2013-01-15 14:53:00,33.0,20.0,30.15,SW,219,6.0,17.0,59,0.00,,,0.00,,2013-01-15 20:53:00,
2013-01-15 15:03:00,33.0,20.0,30.15,SSW,205,7.0,15.0,59,0.00,,,0.00,,2013-01-15 21:03:00,
2013-01-15 15:12:00,33.0,20.0,30.15,SSW,205,7.0,15.0,59,0.00,,,0.00,,2013-01-15 21:12:00,
2013-01-15 15:23:00,33.0,21.0,30.14,SW,223,4.0,14.0,60,0.00,,,0.00,,2013-01-15 21:23:00,
2013-01-15 15:33:00,33.0,21.0,30.14,SW,215,5.0,11.0,61,0.00,,,0.00,,2013-01-15 21:33:00,
2013-01-15 15:43:00,33.0,21.0,30.14,SW,215,5.0,11.0,61,0.00,,,0.00,,2013-01-15 21:43:00,
2013-01-15 15:53:00,33.0,21.0,30.13,SSW,209,5.0,14.0,62,0.00,,,0.00,,2013-01-15 21:53:00,
2013-01-15 16:03:00,32.0,21.0,30.13,SSE,165,5.0,17.0,63,0.00,,,0.00,,2013-01-15 22:03:00,
2013-01-15 16:12:00,32.0,21.0,30.13,SSE,165,5.0,17.0,63,0.00,,,0.00,,2013-01-15 22:12:00,
2013-01-15 16:23:00,32.0,21.0,30.12,SSW,206,7.0,13.0,64,0.00,,,0.00,,2013-01-15 22:23:00,
2013-01-15 16:33:00,32.0,21.0,30.12,SSW,206,7.0,13.0,64,0.00,,,0.00,,2013-01-15 22:33:00,
2013-01-15 16:43:00,32.0,21.0,30.12,SSW,206,7.0,13.0,64,0.00,,,0.00,,2013-01-15 22:43:00,
2013-01-15 16:53:00,31.0,21.0,30.13,South,190,4.0,13.0,65,0.00,,,0.00,,2013-01-15 22:53:00,
2013-01-15 17:02:00,31.0,21.0,30.13,SSE,165,3.0,10.0,67,0.00,,,0.00,,2013-01-15 23:02:00,
2013-01-15 17:13:00,31.0,21.0,30.13,SSE,165,3.0,10.0,67,0.00,,,0.00,,2013-01-15 23:13:00,
2013-01-15 17:22:00,30.0,21.0,30.11,WSW,243,4.0,9.0,69,0.00,,,0.00,,2013-01-15 23:22:00,
2013-01-15 17:32:00,29.0,20.0,30.12,South,174,2.0,9.0,70,0.00,,,0.00,,2013-01-15 23:32:00,
2013-01-15 17:42:00,29.0,20.0,30.12,South,174,2.0,9.0,70,0.00,,,0.00,,2013-01-15 23:42:00,
2013-01-15 17:53:00,29.0,21.0,30.12,SW,225,5.0,11.0,72,0.00,,,0.00,,2013-01-15 23:53:00,
2013-01-15 18:02:00,28.0,20.0,30.11,South,174,3.0,9.0,72,0.00,,,0.00,,2013-01-16 00:02:00,
2013-01-15 18:12:00,28.0,20.0,30.11,South,174,3.0,9.0,72,0.00,,,0.00,,2013-01-16 00:12:00,
2013-01-15 18:22:00,28.0,20.0,30.11,SW,232,3.0,10.0,73,0.00,,,0.00,,2013-01-16 00:22:00,
2013-01-15 18:32:00,28.0,20.0,30.11,West,261,3.0,10.0,72,0.00,,,0.00,,2013-01-16 00:32:00,
2013-01-15 18:43:00,28.0,20.0,30.11,West,261,3.0,10.0,72,0.00,,,0.00,,2013-01-16 00:43:00,
2013-01-15 18:53:00,28.0,20.0,30.09,SW,219,3.0,13.0,71,0.00,,,0.00,,2013-01-16 00:53:00,
2013-01-15 19:02:00,28.0,20.0,30.09,SW,218,4.0,11.0,71,0.00,,,0.00,,2013-01-16 01:02:00,
2013-01-15 19:12:00,28.0,20.0,30.09,SW,218,4.0,11.0,71,0.00,,,0.00,,2013-01-16 01:12:00,
2013-01-15 19:22:00,27.0,20.0,30.09,South,176,4.0,8.0,73,0.00,,,0.00,,2013-01-16 01:22:00,
2013-01-15 19:33:00,26.0,19.0,30.09,SSW,200,3.0,8.0,76,0.00,,,0.00,,2013-01-16 01:33:00,
2013-01-15 19:42:00,26.0,19.0,30.09,SSW,200,3.0,8.0,76,0.00,,,0.00,,2013-01-16 01:42:00,
2013-01-15 19:53:00,25.0,19.0,30.09,SSW,204,4.0,6.0,78,0.00,,,0.00,,2013-01-16 01:53:00,
2013-01-15 20:02:00,25.0,19.0,30.08,SSW,207,4.0,9.0,78,0.00,,,0.00,,2013-01-16 02:02:00,
2013-01-15 20:12:00,25.0,19.0,30.08,SSW,207,4.0,9.0,78,0.00,,,0.00,,2013-01-16 02:12:00,
2013-01-15 20:22:00,25.0,19.0,30.07,SSW,208,2.0,9.0,79,0.00,,,0.00,,2013-01-16 02:22:00,
2013-01-15 20:32:00,24.0,19.0,30.06,SSW,194,2.0,6.0,80,0.00,,,0.00,,2013-01-16 02:32:00,
2013-01-15 20:42:00,24.0,19.0,30.06,SSW,194,2.0,6.0,80,0.00,,,0.00,,2013-01-16 02:42:00,
2013-01-15 20:53:00,24.0,19.0,30.05,South,181,4.0,7.0,80,0.00,,,0.00,,2013-01-16 02:53:00,
2013-01-15 21:02:00,24.0,19.0,30.03,SSE,168,5.0,11.0,80,0.00,,,0.00,,2013-01-16 03:02:00,
2013-01-15 21:12:00,24.0,19.0,30.03,SSE,168,5.0,11.0,80,0.00,,,0.00,,2013-01-16 03:12:00,
2013-01-15 21:22:00,24.0,18.0,30.02,SSE,159,4.0,8.0,79,0.00,,,0.00,,2013-01-16 03:22:00,
2013-01-15 21:32:00,24.0,18.0,30.01,West,275,6.0,10.0,79,0.00,,,0.00,,2013-01-16 03:32:00,
2013-01-15 21:43:00,24.0,18.0,30.01,West,275,6.0,10.0,79,0.00,,,0.00,,2013-01-16 03:43:00,
2013-01-15 21:53:00,23.0,18.0,30.01,SSE,162,5.0,9.0,80,0.00,,,0.00,,2013-01-16 03:53:00,
2013-01-15 22:02:00,23.0,18.0,29.99,SE,138,5.0,13.0,80,0.00,,,0.00,,2013-01-16 04:02:00,
2013-01-15 22:12:00,23.0,18.0,29.99,SE,138,5.0,13.0,80,0.00,,,0.00,,2013-01-16 04:12:00,
2013-01-15 22:22:00,23.0,18.0,29.98,SSW,209,5.0,14.0,80,0.00,,,0.00,,2013-01-16 04:22:00,
2013-01-15 22:32:00,23.0,18.0,29.98,South,170,7.0,15.0,80,0.00,,,0.00,,2013-01-16 04:32:00,
2013-01-15 22:42:00,23.0,18.0,29.98,South,170,7.0,15.0,80,0.00,,,0.00,,2013-01-16 04:42:00,
2013-01-15 22:52:00,23.0,18.0,29.97,SSE,168,7.0,12.0,81,0.00,,,0.00,,2013-01-16 04:52:00,
2013-01-15 23:03:00,23.0,18.0,29.96,SW,223,7.0,12.0,81,0.00,,,0.00,,2013-01-16 05:03:00,
2013-01-15 23:12:00,23.0,18.0,29.96,SW,223,7.0,12.0,81,0.00,,,0.00,,2013-01-16 05:12:00,
2013-01-15 23:22:00,23.0,18.0,29.96,SSW,207,6.0,17.0,81,0.00,,,0.00,,2013-01-16 05:22:00,
2013-01-15 23:32:00,23.0,18.0,29.95,SSW,211,4.0,12.0,82,0.00,,,0.00,,2013-01-16 05:32:00,
2013-01-15 23:42:00,23.0,18.0,29.95,SSW,211,4.0,12.0,82,0.00,,,0.00,,2013-01-16 05:42:00,
2013-01-15 23:53:00,23.0,19.0,29.95,SSW,204,4.0,16.0,83,0.00,,,0.00,,2013-01-16 05:53:00,